This demonstration page uses our WeatherBlox Daily Observations layout. Learn more.

Left ArrowRight Arrow

41.55636, -103.73856

Hourly Observations for July 18, 2018

Temp ( °F °C ) Dew Point ( °F °C ) Humidity (%) Winds ( mph kmh ) Pressure ( in mb ) Visibility ( mi km ) Precip ( " mm )
12:58 am 00:58 Mostly Cloudy 63 17.4 60 15.5 89 89 NW 9 15 30.03 1017 10 16 N/A
1:58 am 01:58 Mostly Cloudy 61 16.3 58 14.7 90 90 N N/A 30.03 1017 10 16 N/A
2:58 am 02:58 Partly Cloudy 61 16.2 59 15.1 93 93 E 7 11 30.03 1017 10 16 N/A
3:58 am 03:58 Mostly Clear with Mist and Fog 63 17 61 15.9 93 93 ESE 14 22 30.01 1016 1 2 N/A
4:58 am 04:58 Mostly Cloudy with Fog 59 15.1 58 14.5 96 96 SE 10 17 30.03 1017 3 5 N/A
5:58 am 05:58 Cloudy with Mist and Fog 59 15 57 14 94 94 SSE 8 13 30.04 1017 4 6 N/A
6:58 am 06:58 Mostly Cloudy 59 15 58 14.3 96 96 SSW 9 15 30.05 1018 10 16 N/A
7:58 am 07:58 Cloudy 61 16 59 15 94 94 SW 10 17 30.04 1017 10 16 N/A
8:58 am 08:58 Mostly Cloudy 66 18.8 60 15.7 82 82 WSW 7 11 30.03 1017 10 16 N/A
9:58 am 09:58 Sunny 72 22 63 17 73 73 WSW 7 11 30.01 1016 10 16 N/A
10:58 am 10:58 Sunny 79 26 57 14 48 48 N 8 13 29.99 1016 10 16 N/A
11:58 am 11:58 Sunny 82 27.8 51 10.6 34 34 N 6 9 29.98 1015 10 16 N/A
12:58 pm 12:58 Sunny 84 28.8 51 10.4 32 32 N 16 26 29.97 1015 10 16 N/A
1:58 pm 13:58 Sunny 85 29.3 50 10 30 30 N 10 17 29.96 1015 10 16 N/A
2:58 pm 14:58 Sunny 85 29.7 52 11.1 32 32 N 13 20 29.96 1015 10 16 N/A
3:58 pm 15:58 Sunny 85 29.4 51 10.4 31 31 NNE 13 20 29.94 1014 10 16 N/A
4:58 pm 16:58 Sunny 85 29.4 53 11.4 33 33 NE 7 11 29.93 1014 10 16 N/A
5:58 pm 17:58 Sunny 85 29.4 50 10.2 30 30 NNE 9 15 29.93 1014 10 16 N/A
6:58 pm 18:58 Sunny 82 27.7 48 9 31 31 NNE 8 13 29.93 1014 10 16 N/A
7:58 pm 19:58 Sunny 75 24 52 11 44 44 N 8 13 29.95 1014 10 16 N/A
8:58 pm 20:58 Clear 70 21 48 9 46 46 N 7 11 29.96 1014 10 16 N/A
9:58 pm 21:58 Clear 69 20.5 47 8.5 46 46 NW 5 7 29.96 1015 10 16 N/A
10:58 pm 22:58 Clear 68 19.8 46 7.8 46 46 N N/A 29.98 1015 10 16 N/A
11:58 pm 23:58 Clear 66 18.9 49 9.5 55 55 N N/A 29.97 1015 10 16 N/A

Powered by AerisWeather